map of QIE home
Great Circle Mapper logo
QIE - Airport
Location
City:  Istres, France
Name:Istres-Le Tubé AB
ICAO / IATA:LFMI / QIE

Details
Type:Airport (Aerodrome, Airfield)
Use:Public/Civil, Military
Latitude:43°31'21"N (43.522394)
Longitude:4°55'27"E (4.924236)
Elevation:82 ft (25 m)
Runways:1
Longest:12303 × 197 ft (3750 × 60 m)

Time
Time Zone:UTC+1 (DST+2)
Local Time:

Weather
METAR:LFMI 161500Z AUTO 18013KT 9999 NSC 25/18 Q1012
TAF:LFMI 161100Z 1612/1712 16010KT 9999 FEW040 SCT260
TEMPO 1612/1618 SCT040 BKN260
BECMG 1620/1622 08007KT CAVOK
TEMPO 1706/1712 FEW060TCU BKN100 PROB30
TEMPO 1706/1711 -SHRA

Related Locations
Nearby:
Farthest:CHT: 12368 mi / 19904 km
Waitangi [Tuuta], Chatham Islands, NZ

Find:

   beyond  
but within

Other Information
Maps:
NOTAMs:
Links:
Sources:

  
flag of France   

Airport Diagram

Airport diagram for QIE

Airport diagram (OBSOLETE) from NGA

Sectional Chart

Flight Planning
at skyvector.com

Satellite Image

Google Maps Satellite View

 

Copyright © 2004-2014 Karl L. Swartz. All rights reserved.
The Great Circle Mapper name and logo are trademarks of the Great Circle Mapper.
All other trademarks mentioned herein belong to their respective owners.
Please see credits for attibutions and further copyright information.

  Follow gcmap on Facebook Follow gcmap on Twitter

hCard Microformat

Geo Microformat